144P/Kushida (2001)

Japanese version
Home page
Updated on May 27, 2001

---------------------------------------------------------------------

* Profile

Designation 144P/2000 O2
Recovery Date July 25, 2000
Magnitude
Recoverer C. E. Delahodde, O. R. Hainaut (European Southern Observatory, La Silla)

* Orbital Elements

Epoch 2001 June 20.0 TT = JDT 2452080.5  
T 2001 June 27.69653 TT                                 Muraoka 
q   1.4312798            (2000.0)            P               Q
n   0.13007453     Peri.  216.02269     -0.20049821     -0.97750726
a   3.8578133      Node   245.62433     +0.91481812     -0.16290676
e   0.6289920      Incl.    4.11878     +0.35058277     -0.13394382
P   7.58
From 305 observations 1994-2000, mean residual 0".76.

* Finding Charts

* Magnitudes Graph

        m1 = 7.0 + 5 log d + 25.0 log r

---------------------------------------------------------------------

The orbital elements are calculated by Kenji Muraoka.
The charts are made with StellaNavigator Ver.2.0 for Windows (AstroArts / ASCII).
The magnitudes graphs are made with Comet for Windows.

---------------------------------------------------------------------

Copyright(C) Seiichi Yoshida (comet@aerith.net). All rights reserved.